GW1195 Weather Reports


Display with metric or nautical units.
time (UTC)temp
F
wind
direction
speed
MPH
gust
MPH
rain 1hr
in
rain 24hr
in
rain mn
in
humidity
%
barometer
mb
20220702081539 55 155 1.0 2.0 0.00 0.00 0.00 89 1017.7
20220702081026 56 154 0.0 2.0 0.00 0.00 0.00 89 1017.7
20220702080526 55 0 0.0 2.0 0.00 0.00 0.00 88 1017.6
20220702080043 56 0 0.0 3.0 0.00 0.00 0.00 88 1017.7
20220702075525 56 216 0.0 3.0 0.00 0.00 0.00 88 1017.8
20220702075027 56 217 0.0 2.0 0.00 0.00 0.00 88 1017.8
20220702074540 56 0 0.0 2.0 0.00 0.00 0.00 88 1017.9
20220702074030 56 0 0.0 2.0 0.00 0.00 0.00 88 1017.9
20220702073526 56 0 0.0 2.0 0.00 0.00 0.00 88 1017.9
20220702073036 55 0 0.0 0.0 0.00 0.00 0.00 88 1017.9
20220702072526 55 0 0.0 0.0 0.00 0.00 0.00 88 1017.9
20220702072025 56 0 0.0 1.0 0.00 0.00 0.00 88 1017.9
20220702071531 56 0 0.0 1.0 0.00 0.00 0.00 88 1017.9
20220702071025 56 0 0.0 1.0 0.00 0.00 0.00 88 1018.0
20220702070526 56 0 0.0 2.0 0.00 0.00 0.00 88 1018.1
20220702070044 56 0 0.0 2.0 0.00 0.00 0.00 88 1017.9
20220702065529 56 16 1.0 2.0 0.00 0.00 0.00 88 1018.0
20220702065025 56 0 0.0 3.0 0.00 0.00 0.00 88 1018.0
20220702064536 56 42 0.0 3.0 0.00 0.00 0.00 88 1018.1
20220702064022 55 42 0.0 3.0 0.00 0.00 0.00 88 1018.0
20220702063523 55 0 0.0 4.0 0.00 0.00 0.00 88 1018.0
20220702063036 55 25 0.0 4.0 0.00 0.00 0.00 89 1018.0
20220702062522 55 40 1.0 3.0 0.00 0.00 0.00 89 1018.1
20220702062022 55 0 0.0 3.0 0.00 0.00 0.00 89 1018.1
20220702061533 55 360 1.0 4.0 0.00 0.00 0.00 90 1018.1
20220702061023 55 27 2.0 4.0 0.00 0.00 0.00 90 1018.1
20220702060523 54 349 2.0 4.0 0.00 0.00 0.00 90 1018.2
20220702060033 54 5 1.0 4.0 0.00 0.00 0.00 89 1018.3
20220702055521 54 333 1.0 4.0 0.00 0.00 0.00 89 1018.2
20220702055027 54 344 2.0 4.0 0.00 0.00 0.00 89 1018.1
20220702054535 55 347 1.0 5.0 0.00 0.00 0.00 89 1018.2
20220702054024 55 355 2.0 5.0 0.00 0.00 0.00 89 1018.1
20220702053525 55 11 2.0 5.0 0.00 0.00 0.00 89 1018.2
20220702053040 55 344 1.0 5.0 0.00 0.00 0.00 89 1018.2
20220702052528 55 355 1.0 5.0 0.00 0.00 0.00 88 1018.2
20220702052023 55 351 2.0 5.0 0.00 0.00 0.00 88 1018.1
20220702051533 55 355 2.0 5.0 0.00 0.00 0.00 87 1018.1
20220702051023 56 346 1.0 4.0 0.00 0.00 0.00 87 1018.0
20220702050522 56 350 2.0 5.0 0.00 0.00 0.00 86 1018.1
20220702050038 56 333 1.0 5.0 0.00 0.00 0.00 85 1018.1
20220702045525 56 325 1.0 5.0 0.00 0.00 0.00 85 1018.1
20220702045022 57 292 1.0 5.0 0.00 0.00 0.00 84 1018.0
20220702044534 57 349 1.0 9.0 0.00 0.00 0.00 84 1017.9
20220702044026 57 321 2.0 9.0 0.00 0.00 0.00 83 1017.9
20220702043524 57 280 4.0 9.0 0.00 0.00 0.00 83 1017.8
20220702043039 57 296 2.0 9.0 0.00 0.00 0.00 83 1017.8
20220702042523 58 272 3.0 9.0 0.00 0.00 0.00 83 1017.8
20220702042022 58 257 3.0 10.0 0.00 0.00 0.00 83 1017.8
20220702041538 58 304 4.0 10.0 0.00 0.00 0.00 83 1017.7
20220702041027 58 284 4.0 15.0 0.00 0.00 0.00 83 1017.7
20220702040526 58 332 4.0 15.0 0.00 0.00 0.00 83 1017.7
20220702040045 58 281 4.0 10.0 0.00 0.00 0.00 83 1017.7
20220702035526 58 280 6.0 13.0 0.00 0.00 0.00 82 1017.7
20220702035024 58 270 6.0 13.0 0.00 0.00 0.00 82 1017.8
20220702034609 58 291 6.0 13.0 0.00 0.00 0.00 82 1017.7
20220702034025 59 313 7.0 12.0 0.00 0.00 0.00 81 1017.8
20220702033524 59 300 7.0 13.0 0.00 0.00 0.00 80 1017.8
20220702033042 59 271 6.0 16.0 0.00 0.00 0.00 80 1017.8
20220702032525 59 266 7.0 16.0 0.00 0.00 0.00 79 1017.7
20220702032024 60 316 5.0 14.0 0.00 0.00 0.00 79 1017.9
20220702031536 60 19 6.0 16.0 0.00 0.00 0.00 79 1017.9
20220702031024 60 259 6.0 16.0 0.00 0.00 0.00 78 1017.9
20220702030526 61 275 4.0 14.0 0.00 0.00 0.00 77 1018.0
20220702030033 61 306 6.0 14.0 0.00 0.00 0.00 77 1018.0
20220702025526 61 270 5.0 13.0 0.00 0.00 0.00 77 1018.0
20220702025024 61 291 7.0 13.0 0.00 0.00 0.00 77 1018.1
20220702024532 61 271 5.0 14.0 0.00 0.00 0.00 76 1018.0
20220702024027 61 298 8.0 14.0 0.00 0.00 0.00 76 1018.1
20220702023526 61 276 6.0 13.0 0.00 0.00 0.00 76 1018.0
20220702023039 62 273 7.0 14.0 0.00 0.00 0.00 75 1018.0
20220702022523 62 285 7.0 14.0 0.00 0.00 0.00 75 1018.0
20220702022026 62 289 7.0 14.0 0.00 0.00 0.00 75 1017.9
20220702021534 62 275 7.0 13.0 0.00 0.00 0.00 74 1018.0
20220702021024 62 284 6.0 16.0 0.00 0.00 0.00 74 1018.0
20220702020526 62 293 8.0 16.0 0.00 0.00 0.00 74 1018.0
20220702020038 62 302 6.0 17.0 0.00 0.00 0.00 74 1018.0
20220702015523 62 232 5.0 17.0 0.00 0.00 0.00 74 1018.0
20220702015027 62 286 7.0 15.0 0.00 0.00 0.00 73 1018.1
20220702014535 62 259 7.0 14.0 0.00 0.00 0.00 73 1018.2
20220702014022 62 304 7.0 16.0 0.00 0.00 0.00 74 1018.2
20220702013523 62 306 6.0 16.0 0.00 0.00 0.00 73 1018.1
20220702013042 63 352 9.0 17.0 0.00 0.00 0.00 73 1018.3
20220702012530 63 301 7.0 17.0 0.00 0.00 0.00 72 1018.4
20220702012025 63 265 9.0 17.0 0.00 0.00 0.00 72 1018.3
20220702011529 63 301 7.0 17.0 0.00 0.00 0.00 72 1018.5
20220702011024 63 279 8.0 17.0 0.00 0.00 0.00 73 1018.5
20220702010524 63 251 7.0 16.0 0.00 0.00 0.00 72 1018.5
20220702010035 63 296 9.0 16.0 0.00 0.00 0.00 72 1018.6
20220702005523 63 270 8.0 16.0 0.00 0.00 0.00 72 1018.6
20220702005025 63 265 9.0 16.0 0.00 0.00 0.00 73 1018.6
20220702004532 62 273 7.0 16.0 0.00 0.00 0.00 74 1018.6
20220702004023 62 277 8.0 16.0 0.00 0.00 0.00 73 1018.8
20220702003523 62 260 8.0 16.0 0.00 0.00 0.00 73 1018.8
20220702003032 62 257 9.0 17.0 0.00 0.00 0.00 73 1018.8
20220702002525 62 303 8.0 17.0 0.00 0.00 0.00 74 1018.9
20220702002025 62 296 7.0 17.0 0.00 0.00 0.00 74 1019.1
20220702001539 62 302 8.0 17.0 0.00 0.00 0.00 73 1019.1
20220702001023 63 259 8.0 17.0 0.00 0.00 0.00 74 1019.1
20220702000522 63 265 5.0 17.0 0.00 0.00 0.00 74 1019.2
20220702000042 62 316 7.0 17.0 0.00 0.00 0.00 75 1019.1
20220701235524 62 355 5.0 17.0 0.00 0.00 0.00 75 1019.2
20220701235027 62 226 9.0 17.0 0.00 0.00 0.00 75 1019.3
20220701234533 62 309 8.0 16.0 0.00 0.00 0.00 75 1019.3
20220701234024 62 258 8.0 16.0 0.00 0.00 0.00 75 1019.3
20220701233524 62 283 6.0 17.0 0.00 0.00 0.00 75 1019.4
20220701233028 62 282 8.0 17.0 0.00 0.00 0.00 75 1019.4
20220701232521 62 348 7.0 18.0 0.00 0.00 0.00 74 1019.5
20220701232023 62 286 6.0 18.0 0.00 0.00 0.00 75 1019.6
20220701231534 62 283 9.0 18.0 0.00 0.00 0.00 75 1019.6
20220701231022 63 277 7.0 17.0 0.00 0.00 0.00 76 1019.6
20220701230523 63 285 8.0 16.0 0.00 0.00 0.00 75 1019.7
20220701230040 63 277 8.0 16.0 0.00 0.00 0.00 75 1019.7
20220701225522 63 346 7.0 16.0 0.00 0.00 0.00 76 1019.7
20220701225021 63 308 9.0 16.0 0.00 0.00 0.00 75 1019.6
20220701224534 63 275 7.0 15.0 0.00 0.00 0.00 75 1019.7
20220701224023 63 296 9.0 16.0 0.00 0.00 0.00 75 1019.7
20220701223522 63 289 8.0 16.0 0.00 0.00 0.00 74 1019.7
20220701223043 63 348 8.0 15.0 0.00 0.00 0.00 74 1019.6
20220701222522 63 254 5.0 15.0 0.00 0.00 0.00 75 1019.6
20220701222021 63 258 8.0 16.0 0.00 0.00 0.00 74 1019.7
20220701221539 63 290 7.0 16.0 0.00 0.00 0.00 74 1019.7
20220701221022 63 262 6.0 14.0 0.00 0.00 0.00 74 1019.8
20220701220522 63 266 7.0 14.0 0.00 0.00 0.00 75 1019.9
20220701220047 63 249 7.0 15.0 0.00 0.00 0.00 75 1020.0
20220701215522 63 285 6.0 16.0 0.00 0.00 0.00 75 1019.9
20220701215025 63 315 8.0 16.0 0.00 0.00 0.00 75 1019.9
20220701214550 63 283 8.0 15.0 0.00 0.00 0.00 74 1019.9
20220701214021 63 292 6.0 16.0 0.00 0.00 0.00 76 1019.9
20220701213521 63 294 7.0 19.0 0.00 0.00 0.00 76 1020.0
20220701213037 63 298 7.0 19.0 0.00 0.00 0.00 75 1020.1
20220701212522 64 280 8.0 16.0 0.00 0.00 0.00 74 1019.9
20220701212022 63 342 6.0 13.0 0.00 0.00 0.00 75 1020.0
20220701211533 63 294 7.0 14.0 0.00 0.00 0.00 75 1020.1
20220701211025 64 329 7.0 14.0 0.00 0.00 0.00 74 1020.0
20220701210526 63 273 7.0 14.0 0.00 0.00 0.00 75 1020.1
20220701210036 63 265 8.0 14.0 0.00 0.00 0.00 75 1020.1
20220701205521 63 273 7.0 15.0 0.00 0.00 0.00 75 1020.1
20220701205023 64 340 7.0 16.0 0.00 0.00 0.00 75 1020.1
20220701204533 63 49 5.0 17.0 0.00 0.00 0.00 76 1020.1
20220701204022 63 291 8.0 17.0 0.00 0.00 0.00 75 1020.1
20220701203524 63 260 7.0 16.0 0.00 0.00 0.00 75 1020.1
20220701203039 63 286 9.0 17.0 0.00 0.00 0.00 75 1020.0
20220701202524 63 294 6.0 17.0 0.00 0.00 0.00 76 1020.0
20220701202026 64 261 7.0 15.0 0.00 0.00 0.00 75 1020.0
20220701201535 64 272 7.0 14.0 0.00 0.00 0.00 76 1020.0
20220701201027 64 277 6.0 16.0 0.00 0.00 0.00 75 1020.1
20220701200524 64 266 7.0 16.0 0.00 0.00 0.00 76 1020.1
20220701200031 64 251 5.0 15.0 0.00 0.00 0.00 76 1020.1
20220701195522 64 277 4.0 15.0 0.00 0.00 0.00 75 1020.1
20220701195028 64 313 6.0 15.0 0.00 0.00 0.00 76 1020.1
20220701194530 64 331 9.0 15.0 0.00 0.00 0.00 75 1020.2
20220701194023 64 262 7.0 13.0 0.00 0.00 0.00 76 1020.1
20220701193524 64 318 6.0 13.0 0.00 0.00 0.00 76 1020.2
20220701193031 63 252 4.0 13.0 0.00 0.00 0.00 77 1020.2
20220701192525 63 306 8.0 13.0 0.00 0.00 0.00 78 1020.2
20220701192022 63 263 7.0 12.0 0.00 0.00 0.00 76 1020.2
20220701191532 63 343 5.0 12.0 0.00 0.00 0.00 78 1020.1
20220701191024 63 247 5.0 13.0 0.00 0.00 0.00 77 1020.2
20220701190524 63 263 7.0 14.0 0.00 0.00 0.00 77 1020.3
20220701190031 63 279 6.0 14.0 0.00 0.00 0.00 77 1020.2
20220701185526 63 273 6.0 13.0 0.00 0.00 0.00 78 1020.3
20220701185021 63 212 7.0 13.0 0.00 0.00 0.00 78 1020.2
20220701184535 63 280 7.0 12.0 0.00 0.00 0.00 77 1020.3
20220701184023 63 250 5.0 12.0 0.00 0.00 0.00 78 1020.2
20220701183523 63 16 5.0 12.0 0.00 0.00 0.00 78 1020.3
20220701183037 63 263 3.0 11.0 0.00 0.00 0.00 78 1020.3
20220701182523 62 266 6.0 12.0 0.00 0.00 0.00 79 1020.3
20220701182023 62 285 5.0 12.0 0.00 0.00 0.00 79 1020.3
20220701181541 62 274 5.0 11.0 0.00 0.00 0.00 79 1020.3
20220701181022 62 342 5.0 11.0 0.00 0.00 0.00 79 1020.3
20220701180525 62 355 4.0 10.0 0.00 0.00 0.00 79 1020.2
20220701180034 62 315 4.0 10.0 0.00 0.00 0.00 81 1020.2
20220701175523 62 286 3.0 11.0 0.00 0.00 0.00 80 1020.2
20220701175023 62 326 4.0 11.0 0.00 0.00 0.00 81 1020.2
20220701174535 62 275 4.0 11.0 0.00 0.00 0.00 79 1020.2
20220701174023 62 284 4.0 9.0 0.00 0.00 0.00 79 1020.3
20220701173524 62 314 3.0 9.0 0.00 0.00 0.00 80 1020.3
20220701173032 61 282 4.0 9.0 0.00 0.00 0.00 79 1020.3
20220701172522 62 291 3.0 8.0 0.00 0.00 0.00 78 1020.2
20220701172023 61 287 4.0 8.0 0.00 0.00 0.00 78 1020.2
20220701171532 62 283 4.0 8.0 0.00 0.00 0.00 75 1020.3
20220701171026 62 260 1.0 4.0 0.00 0.00 0.00 76 1020.2
20220701170522 61 269 1.0 4.0 0.00 0.00 0.00 77 1020.3
20220701170036 61 271 0.0 3.0 0.00 0.00 0.00 79 1020.3
20220701165528 61 174 1.0 3.0 0.00 0.00 0.00 77 1020.4
20220701165022 61 252 0.0 3.0 0.00 0.00 0.00 78 1020.3
20220701164534 61 252 1.0 3.0 0.00 0.00 0.00 79 1020.4
20220701164022 61 0 0.0 3.0 0.00 0.00 0.00 79 1020.4
20220701163523 60 355 0.0 2.0 0.00 0.00 0.00 80 1020.4
20220701163035 60 0 0.0 3.0 0.00 0.00 0.00 80 1020.4
20220701162521 60 0 0.0 3.0 0.00 0.00 0.00 80 1020.3
20220701162026 60 11 1.0 2.0 0.00 0.00 0.00 81 1020.4
20220701161532 60 81 0.0 4.0 0.00 0.00 0.00 82 1020.3
20220701161023 60 99 1.0 4.0 0.00 0.00 0.00 81 1020.3
20220701160524 59 0 0.0 2.0 0.00 0.00 0.00 82 1020.2
20220701160029 59 17 1.0 4.0 0.00 0.00 0.00 81 1020.4
20220701155522 59 90 0.0 4.0 0.00 0.00 0.00 81 1020.2
20220701155023 59 0 1.0 4.0 0.00 0.00 0.00 81 1020.4
20220701154535 59 330 1.0 3.0 0.00 0.00 0.00 82 1020.3
20220701154025 59 351 0.0 4.0 0.00 0.00 0.00 82 1020.3
20220701153524 59 302 1.0 4.0 0.00 0.00 0.00 82 1020.3
20220701153031 59 293 1.0 4.0 0.00 0.00 0.00 82 1020.3
20220701152526 59 0 1.0 4.0 0.00 0.00 0.00 82 1020.3
20220701152028 59 321 0.0 3.0 0.00 0.00 0.00 83 1020.3
20220701151537 59 329 1.0 3.0 0.00 0.00 0.00 84 1020.3
20220701151024 59 0 1.0 5.0 0.00 0.00 0.00 84 1020.4
20220701150528 58 0 0.0 5.0 0.00 0.00 0.00 84 1020.3
20220701150047 58 347 2.0 6.0 0.00 0.00 0.00 83 1020.2
20220701145525 58 267 2.0 6.0 0.00 0.00 0.00 84 1020.2
20220701145027 58 338 0.0 4.0 0.00 0.00 0.00 86 1020.3
20220701144533 58 333 1.0 4.0 0.00 0.00 0.00 85 1020.2
20220701144028 58 355 1.0 4.0 0.00 0.00 0.00 84 1020.3
20220701143526 58 336 1.0 4.0 0.00 0.00 0.00 85 1020.3
20220701143041 58 0 1.0 3.0 0.00 0.00 0.00 86 1020.2
20220701142524 58 336 1.0 3.0 0.00 0.00 0.00 86 1020.2
20220701142026 58 39 1.0 3.0 0.00 0.00 0.00 87 1020.2
20220701141534 58 352 0.0 2.0 0.00 0.00 0.00 88 1020.2
20220701141025 57 11 0.0 3.0 0.00 0.00 0.00 88 1020.2
20220701140524 57 348 0.0 3.0 0.00 0.00 0.00 88 1020.1
20220701140051 57 348 0.0 3.0 0.00 0.00 0.00 87 1020.2
20220701135526 57 0 0.0 2.0 0.00 0.00 0.00 87 1020.1
20220701135025 57 0 0.0 3.0 0.00 0.00 0.00 88 1020.0
20220701134533 57 0 1.0 3.0 0.00 0.00 0.00 87 1020.0
20220701134026 57 36 0.0 3.0 0.00 0.00 0.00 88 1020.0
20220701133529 57 5 1.0 3.0 0.00 0.00 0.00 89 1020.1
20220701133036 57 295 1.0 3.0 0.00 0.00 0.00 88 1020.0
20220701132525 57 0 0.0 2.0 0.00 0.00 0.00 89 1019.9
20220701132023 57 0 1.0 2.0 0.00 0.00 0.00 88 1019.8
20220701131542 57 348 0.0 2.0 0.00 0.00 0.00 88 1019.9
20220701131026 57 0 0.0 2.0 0.00 0.00 0.00 88 1019.9
20220701130526 57 355 1.0 3.0 0.00 0.00 0.00 87 1019.8
20220701130033 57 0 0.0 3.0 0.00 0.00 0.00 87 1019.8
20220701125525 57 352 0.0 3.0 0.00 0.00 0.00 87 1019.9
20220701125024 57 333 1.0 3.0 0.00 0.00 0.00 87 1019.9
20220701124540 57 0 1.0 3.0 0.00 0.00 0.00 87 1019.9
20220701124026 57 333 1.0 3.0 0.00 0.00 0.00 87 1019.8
20220701123527 57 343 1.0 3.0 0.00 0.00 0.00 87 1019.7
20220701123035 57 323 1.0 3.0 0.00 0.00 0.00 86 1019.7
20220701122525 57 271 1.0 4.0 0.00 0.00 0.00 86 1019.7
20220701122024 57 288 1.0 4.0 0.00 0.00 0.00 86 1019.7
20220701121532 57 355 1.0 4.0 0.00 0.00 0.00 86 1019.7
20220701121024 57 308 1.0 3.0 0.00 0.00 0.00 86 1019.7
20220701120526 57 355 0.0 3.0 0.00 0.00 0.00 86 1019.7
20220701120036 57 301 1.0 3.0 0.00 0.00 0.00 86 1019.7
20220701115528 57 0 0.0 3.0 0.00 0.00 0.00 86 1019.7
20220701115029 57 343 1.0 4.0 0.00 0.00 0.00 86 1019.8
20220701114532 57 348 1.0 4.0 0.00 0.00 0.00 86 1019.8
20220701114026 57 0 0.0 4.0 0.00 0.00 0.00 86 1019.7
20220701113529 57 342 1.0 5.0 0.00 0.00 0.00 86 1019.7
20220701113034 57 360 1.0 5.0 0.00 0.00 0.00 86 1019.7
20220701112524 57 338 1.0 3.0 0.00 0.00 0.00 86 1019.8
20220701112026 57 319 1.0 3.0 0.00 0.00 0.00 86 1019.7
20220701111530 57 300 0.0 3.0 0.00 0.00 0.00 86 1019.8
20220701111026 57 328 1.0 3.0 0.00 0.00 0.00 86 1019.8
20220701110526 57 267 1.0 3.0 0.00 0.00 0.00 86 1019.8
20220701110033 57 267 0.0 4.0 0.00 0.00 0.00 86 1019.9
20220701105529 57 355 1.0 4.0 0.00 0.00 0.00 86 1019.8
20220701105027 57 331 1.0 5.0 0.00 0.00 0.00 86 1019.8
20220701104535 57 348 1.0 7.0 0.00 0.00 0.00 86 1019.8
20220701104028 57 355 2.0 7.0 0.00 0.00 0.00 86 1019.9
20220701103523 57 294 2.0 7.0 0.00 0.00 0.00 86 1019.8
20220701103033 57 262 2.0 6.0 0.00 0.00 0.00 86 1019.8
20220701102525 57 344 2.0 6.0 0.00 0.00 0.00 87 1019.8
20220701102023 57 340 1.0 4.0 0.00 0.00 0.00 87 1019.9
20220701101532 57 344 1.0 4.0 0.00 0.00 0.00 87 1019.9
20220701101025 57 0 0.0 4.0 0.00 0.00 0.00 87 1019.8
20220701100525 57 283 1.0 5.0 0.00 0.00 0.00 88 1019.9
20220701100036 57 289 1.0 5.0 0.00 0.00 0.00 88 1019.9
20220701095529 57 0 1.0 5.0 0.00 0.00 0.00 89 1019.9
20220701095028 57 355 0.0 3.0 0.00 0.00 0.00 90 1019.8
20220701094537 57 355 0.0 3.0 0.00 0.00 0.00 90 1019.7
20220701094028 57 355 2.0 3.0 0.00 0.00 0.00 90 1019.9
20220701093526 57 340 1.0 3.0 0.00 0.00 0.00 90 1019.9
20220701093036 57 340 0.0 3.0 0.00 0.00 0.00 89 1019.9
20220701092527 57 324 1.0 3.0 0.00 0.00 0.00 89 1019.8
20220701092025 57 12 1.0 3.0 0.00 0.00 0.00 89 1019.8
20220701091534 57 312 1.0 3.0 0.00 0.00 0.00 89 1019.9
20220701091029 57 335 0.0 3.0 0.00 0.00 0.00 89 1019.9
20220701090526 57 293 1.0 3.0 0.00 0.00 0.00 88 1019.9
20220701090041 57 0 1.0 3.0 0.00 0.00 0.00 88 1019.9
20220701085529 57 304 1.0 3.0 0.00 0.00 0.00 88 1019.8
20220701085023 58 338 0.0 3.0 0.00 0.00 0.00 88 1019.9
20220701084539 57 296 1.0 3.0 0.00 0.00 0.00 87 1019.9
20220701084026 58 344 1.0 3.0 0.00 0.00 0.00 87 1019.7
20220701083526 58 273 1.0 3.0 0.00 0.00 0.00 87 1019.9
20220701083033 58 286 0.0 3.0 0.00 0.00 0.00 87 1019.9
20220701082526 58 275 1.0 3.0 0.00 0.00 0.00 87 1019.9
20220701082028 58 0 0.0 3.0 0.00 0.00 0.00 87 1020.0